Flag for Kazakhstan Weather past 2 weeks in Almaty, Kazakhstan

Now
16 °F

Ice fog.


Feels Like: 10 °F
Forecast: 20 / 44 °F
Wind: 3 mph from South

Location: Almaty Airport

Current Time: Dec 23, 2014 at 5:43:09 AM

Latest Report: Dec 23, 2014 at 5:00 AM


Visibility: 0 mi

Pressure: 30.09 "Hg

Humidity: 86%

Dew point: 12 °F

Location of AlmatyLocation

Historic Weather in Almaty — Graph

°F

Almaty temperature yesterday

Maximum temperature yesterday: 34 °F (at 1:30 PM)
Minimum temperature yesterday: 18 °F (at 6:00 AM)
Average temperature yesterday: 24 °F

Past Weeks' High & Low Weather Summary

 TemperatureHumidityPressure
High34 °F (Dec 20, 3:00 PM)93% (Dec 21, 8:30 AM)31.01 "Hg (Dec 21, 8:30 AM)
Low-2 °F (Dec 9, 12:30 AM)39% (Dec 10, 3:30 PM)30.04 "Hg (Dec 22, 1:30 PM)
Average15 °F76%30.44 "Hg
* Reported Dec 8 4:00 AM — Dec 23 4:30 AM, Almaty, Weather by CustomWeather, © 2014

Note: Actual official high and low records may vary slightly from our data, if they occured in-between our weather recording intervals... More about our weather records

Advertising

Almaty weather history for previous 24 hours

 ConditionsComfort  
Time TempWeatherWind HumidityBarometerVisibility
4:30 AM
Dec 23
16 °FCold.1 mph86%30.09 "HgN/A
4:00 AM16 °FIce fog.1 mph86%30.09 "Hg0 mi
3:30 AM18 °FIce fog.No wind86%30.09 "Hg0 mi
3:00 AM18 °FIce fog.No wind86%30.09 "Hg0 mi
2:30 AM18 °FIce fog.1 mph86%30.07 "Hg0 mi
2:00 AM18 °FIce fog.1 mph86%30.07 "Hg0 mi
1:30 AM18 °FIce fog.1 mph86%30.07 "Hg0 mi
1:00 AM18 °FIce fog.3 mph86%30.07 "Hg0 mi
12:30 AM18 °FIce fog.6 mph86%30.07 "Hg0 mi
12:00 AM18 °FIce fog.3 mph86%30.07 "Hg0 mi
11:30 PM
Dec 22
18 °FIce fog.3 mph93%30.07 "Hg0 mi
11:00 PM19 °FIce fog.3 mph86%30.07 "Hg0 mi
10:30 PM19 °FIce fog.3 mph86%30.07 "Hg0 mi
10:00 PM19 °FIce fog.3 mph86%30.07 "Hg0 mi
9:30 PM19 °FIce fog.3 mph86%30.07 "Hg0 mi
9:00 PM21 °FIce fog.3 mph86%30.09 "Hg0 mi
8:30 PM21 °FIce fog.6 mph86%30.09 "Hg0 mi
8:00 PM21 °FIce fog.3 mph86%30.09 "Hg0 mi
7:30 PM23 °FIce fog.3 mph80%30.09 "Hg0 mi
7:00 PM23 °FIce fog.3 mph86%30.09 "Hg0 mi
6:30 PM25 °FIce fog.No wind86%30.07 "Hg0 mi
6:00 PM27 °FIce fog.No wind80%30.07 "Hg0 mi
5:30 PM28 °FIce fog.1 mph74%30.07 "Hg1 mi
5:00 PM30 °FIce fog.1 mph75%30.07 "Hg1 mi
4:30 PM30 °FScattered clouds.1 mph69%30.04 "Hg1 mi
4:00 PM34 °FBroken clouds.1 mph65%30.04 "Hg1 mi
3:30 PM32 °FBroken clouds.1 mph69%30.04 "Hg1 mi
3:00 PM34 °FBroken clouds.1 mph65%30.04 "Hg1 mi
2:30 PM34 °FScattered clouds.3 mph65%30.04 "Hg1 mi
2:00 PM34 °FScattered clouds.3 mph65%30.04 "Hg1 mi
1:30 PM34 °FScattered clouds.1 mph65%30.04 "Hg1 mi
1:00 PM32 °FScattered clouds.1 mph69%30.07 "Hg1 mi
12:30 PM30 °FIce fog.No wind75%30.07 "Hg1 mi
12:00 PM30 °FIce fog.1 mph75%30.07 "Hg1 mi
11:30 AM28 °FIce fog.No wind74%30.09 "Hg1 mi
11:00 AM28 °FIce fog.No wind74%30.09 "Hg1 mi
10:30 AM28 °FIce fog.1 mph74%30.09 "Hg0 mi
9:30 AM21 °FIce fog.1 mph86%30.09 "Hg0 mi
9:00 AM18 °FIce fog.3 mph86%30.09 "Hg0 mi
8:30 AM19 °FIce fog.1 mph86%30.09 "Hg0 mi
8:00 AM18 °FIce fog.1 mph86%30.09 "Hg0 mi
7:30 AM18 °FIce fog.1 mph93%30.09 "Hg0 mi
7:00 AM19 °FIce fog.3 mph86%30.07 "Hg0 mi
6:30 AM19 °FIce fog.3 mph86%30.07 "Hg1 mi
6:00 AM18 °FIce fog.1 mph86%30.07 "Hg1 mi
5:30 AM19 °FIce fog.1 mph86%30.07 "Hg1 mi
5:00 AM19 °FIce fog.1 mph86%30.07 "Hg1 mi
Weather by CustomWeather, © 2014

See weather overviewHow to use our weather pages